Lake Burton Weather Center

Moon Phase Calendar



Lake Burton Water Level
Online Cameras

 


      

Current Conditions in Clayton
10/6/2022 1:19:26 AM

51°F
Feels Like 49
Clear
Humidity
73%
Pressure
30.09"
Wind
4.2 mph (N)
Dew Point
43°F
UV Index
0/10 (Low)
Visibility
6 mi

Hourly Forecast

Date & Time Thu, Oct 6
1:00 AM
Thu, Oct 6
2:00 AM
Thu, Oct 6
3:00 AM
Thu, Oct 6
4:00 AM
Thu, Oct 6
5:00 AM
Thu, Oct 6
6:00 AM
Thu, Oct 6
7:00 AM
Thu, Oct 6
8:00 AM
Thu, Oct 6
9:00 AM
Thu, Oct 6
10:00 AM
Thu, Oct 6
11:00 AM
Thu, Oct 6
12:00 PM
Thu, Oct 6
1:00 PM
Thu, Oct 6
2:00 PM
Thu, Oct 6
3:00 PM
Thu, Oct 6
4:00 PM
Thu, Oct 6
5:00 PM
Thu, Oct 6
6:00 PM
Thu, Oct 6
7:00 PM
Thu, Oct 6
8:00 PM
Thu, Oct 6
9:00 PM
Thu, Oct 6
10:00 PM
Thu, Oct 6
11:00 PM
Fri, Oct 7
12:00 AM
Fri, Oct 7
1:00 AM
Fri, Oct 7
2:00 AM
Fri, Oct 7
3:00 AM
Fri, Oct 7
4:00 AM
Fri, Oct 7
5:00 AM
Fri, Oct 7
6:00 AM
Fri, Oct 7
7:00 AM
Fri, Oct 7
8:00 AM
Fri, Oct 7
9:00 AM
Fri, Oct 7
10:00 AM
Fri, Oct 7
11:00 AM
Fri, Oct 7
12:00 PM
Fri, Oct 7
1:00 PM
Fri, Oct 7
2:00 PM
Fri, Oct 7
3:00 PM
Fri, Oct 7
4:00 PM
Fri, Oct 7
5:00 PM
Fri, Oct 7
6:00 PM
Fri, Oct 7
7:00 PM
Fri, Oct 7
8:00 PM
Fri, Oct 7
9:00 PM
Fri, Oct 7
10:00 PM
Fri, Oct 7
11:00 PM
Sat, Oct 8
12:00 AM
Condition
Clear

Clear

Clear

Clear

Clear

Clear

Clear

Clear

Clear

Clear

Clear

Clear

Clear

Clear

Clear

Clear

Clear

Clear

Clear

Clear

Clear

Clear

Clear

Clear

Clear

Clear

Clear

Clear

Clear

Clear

Clear

Clear

Clear

Clouds

Clouds

Clouds

Clouds

Clouds

Clouds

Clouds

Clouds

Clouds

Clouds

Clouds

Clouds

Clouds

Clouds

Clouds
Temperature 51°F51°F52°F52°F52°F52°F51°F52°F59°F65°F69°F71°F73°F75°F75°F75°F74°F70°F62°F58°F57°F56°F55°F54°F54°F54°F54°F54°F54°F53°F54°F54°F60°F68°F73°F75°F76°F76°F76°F75°F73°F69°F64°F61°F59°F58°F56°F55°F
Feels Like 49°F50°F50°F50°F50°F50°F49°F50°F57°F64°F68°F70°F72°F73°F74°F74°F73°F69°F61°F57°F55°F54°F53°F53°F52°F52°F52°F52°F51°F51°F51°F52°F59°F66°F71°F74°F75°F75°F75°F74°F72°F68°F63°F60°F58°F57°F55°F54°F
Cloudiness 5%5%3%3%1%0%0%0%8%8%5%5%4%4%0%0%0%0%1%1%4%10%9%6%5%4%0%0%0%0%0%0%0%23%22%29%37%47%65%82%88%91%93%94%100%99%97%98%
Visibility 6 mi6 mi6 mi6 mi6 mi6 mi6 mi6 mi6 mi6 mi6 mi6 mi6 mi6 mi6 mi6 mi6 mi6 mi6 mi6 mi6 mi6 mi6 mi6 mi6 mi6 mi6 mi6 mi6 mi6 mi6 mi6 mi6 mi6 mi6 mi6 mi6 mi6 mi6 mi6 mi6 mi6 mi6 mi6 mi6 mi6 mi6 mi6 mi
Precipitation 0%0%0%0%0%0%0%0%0%0%0%0%0%0%0%0%0%0%0%0%0%0%0%0%0%0%0%0%0%0%0%0%0%0%0%0%0%0%0%0%0%0%0%0%0%0%0%0%
Humidity 73%71%69%67%65%63%63%65%58%48%42%38%35%34%34%34%37%48%62%61%62%64%66%66%65%62%61%60%60%60%59%60%56%44%37%34%33%33%33%35%43%51%59%65%68%72%76%79%
Dew Point 43°F42°F42°F41°F40°F38°F38°F40°F43°F44°F44°F44°F43°F44°F44°F44°F45°F48°F48°F44°F43°F42°F42°F42°F41°F40°F39°F39°F39°F39°F39°F39°F44°F44°F44°F44°F44°F44°F44°F45°F48°F49°F49°F48°F48°F48°F48°F48°F
Pressure 30.09"30.09"30.09"30.09"30.09"30.09"30.09"30.09"30.12"30.09"30.09"30.09"30.06"30.03"30.03"30"30"30.03"30.06"30.09"30.09"30.12"30.12"30.12"30.12"30.12"30.12"30.12"30.12"30.12"30.15"30.15"30.18"30.15"30.15"30.12"30.12"30.09"30.09"30.06"30.09"30.09"30.12"30.12"30.15"30.15"30.15"30.18"
Wind Speed 4.2 mph4 mph3.8 mph3.6 mph3.6 mph3.5 mph3.3 mph3 mph1.6 mph0.5 mph2.2 mph3.2 mph3.8 mph4.1 mph4.6 mph5.5 mph6.3 mph5.8 mph5.1 mph5.4 mph5.5 mph5.5 mph5.5 mph5.4 mph5.2 mph5.3 mph5.2 mph5.2 mph4.9 mph4.7 mph4.6 mph4.5 mph3.3 mph2.3 mph2.2 mph3.5 mph5.7 mph6.7 mph7.4 mph7.9 mph7.7 mph8 mph6.5 mph5.8 mph6 mph5.8 mph5.7 mph5.4 mph
Wind
Direction

N

N

N

N

N

N

N

N
358°
N
150°
SSE
198°
SSW
217°
SW
235°
SW
254°
WSW
269°
W
285°
WNW
295°
WNW
295°
WNW
305°
NW
318°
NW
325°
NW
333°
NNW
339°
NNW
340°
NNW
341°
NNW
342°
NNW
344°
NNW
348°
NNW
349°
N
346°
NNW
347°
NNW
346°
NNW
337°
NNW
333°
NNW
281°
W
288°
WNW
283°
WNW
289°
WNW
289°
WNW
300°
WNW
308°
NW
316°
NW
325°
NW
332°
NNW
329°
NNW
327°
NNW
325°
NW
330°
NNW

Daily Forecast

Date High Low Precip. Humidity
Today
Oct 6

Clear
75 °F
51 °F
0%
35%
Friday
Oct 7

Clouds
76 °F
53 °F
0%
33%
Saturday
Oct 8

Clear
72 °F
49 °F
0%
33%
Sunday
Oct 9

Clouds
69 °F
49 °F
0%
46%
Monday
Oct 10

Clouds
74 °F
50 °F
0%
42%
Tuesday
Oct 11

Clear
76 °F
55 °F
3%
47%
Wednesday
Oct 12

Clouds
75 °F
57 °F
0%
48%
Thursday
Oct 13

Rain
74 °F
56 °F
100%
53%
Friday
Oct 14

Rain
73 °F
57 °F
100%
55%
Saturday
Oct 15

Clouds
65 °F
50 °F
7%
64%
Sunday
Oct 16

Clear
69 °F
49 °F
1%
51%
Monday
Oct 17

Clouds
69 °F
48 °F
0%
45%
Tuesday
Oct 18

Rain
69 °F
55 °F
82%
72%
Wednesday
Oct 19

Clouds
63 °F
43 °F
6%
45%
Thursday
Oct 20

Clear
62 °F
39 °F
0%
39%
Friday
Oct 21

Clear
66 °F
44 °F
0%
38%

Temperature 8-14 Day Outlook



Precipitation 8-14 Day Outlook




Quick Links
Lake Burton News
Lake Burton Photos
Lake Burton Videos




About Us
Contact Us
Site Map
Search Site
Advertise With Us
   
Burton.USLakes.info
THE LAKE BURTON WEBSITE

Copyright 2022, Lakes Online
Privacy    |    Legal